Location: Unspecified
(49.9820°N, 20.4363°E)
Time: 04:43:41
(UTC+02:00)

Vanguard 3 - Pass Details

Date: 20 May 2026
Orbit: 507 x 3204 km, 33.3° (Epoch: 6 June)

Event Time Altitude Azimuth Distance (km) Brightness Sun altitude
Rises 16:20:34 0° 263° (W) 6,857 12.8 36.6°
Reaches altitude 10° 16:25:20 10° 257° (WSW) 6,007 12.9 35.9°
Maximum altitude 16:42:30 42° 197° (SSW) 3,966 11.3 33.2°
Drops below altitude 10° 16:57:17 10° 134° (SE) 5,196 11.0 30.8°
Sets 17:01:03 0° 127° (SE) 5,891 11.2 30.2°
